Home   Weather   Detmold   Past weeks
Flag for Germany

Past Weather in Detmold, North Rhine-Westphalia, Germany — Yesterday and Last 2 Weeks

Now
57 °F

Passing clouds.


Feels Like: 56 °F
Forecast: 69 / 47 °F
Wind: 7 mph from Southwest

Location: Paderborn / Lippstadt

Current Time: May 24, 2019 at 1:17:39 am

Latest Report: May 24, 2019 at 12:20 am


Visibility: N/A

Pressure: 30.01 "Hg

Humidity: 67%

Dew Point: 46 °F

Location of DetmoldLocation

Past Weather in Detmold — Graph

°F

Detmold Temperature Yesterday

Maximum temperature yesterday: 68 °F (at 7:20 pm)
Minimum temperature yesterday: 43 °F (at 5:50 am)
Average temperature yesterday: 57 °F

High & Low Weather Summary for the Past Weeks

 TemperatureHumidityPressure
High73 °F (May 19, 2:50 pm)100% (May 20, 9:20 am)30.69 "Hg (May 20, 9:20 am)
Low30 °F (May 13, 5:20 am)29% (May 13, 2:20 pm)29.45 "Hg (May 8, 11:20 pm)
Average51 °F73%29.98 "Hg
* Reported May 8 11:20 pm — May 23 11:50 pm, Detmold. Weather by CustomWeather, © 2019

Note: Actual official high and low records may vary slightly from our data, if they occured in-between our weather recording intervals... More about our weather records

Advertising

Detmold Weather History for the Previous 24 Hours

Scroll right to see more
 ConditionsComfort  
Time TempWeatherWind HumidityBarometerVisibility
11:50 pm
Thu, May 23
57 °FClear.9 mph67%30.01 "Hg10 mi
11:20 pm57 °FClear.9 mph67%30.01 "Hg10 mi
10:50 pm54 °FClear.8 mph77%30.01 "Hg10 mi
10:20 pm59 °FClear.8 mph63%30.01 "Hg10 mi
9:50 pm59 °FClear.7 mph68%30.01 "Hg10 mi
9:20 pm63 °FSunny.6 mph52%30.01 "Hg10 mi
8:50 pm63 °FSunny.5 mph56%30.01 "Hg10 mi
8:20 pm64 °FSunny.2 mph49%30.01 "Hg10 mi
7:50 pm68 °FSunny.2 mph43%30.01 "Hg10 mi
7:20 pm68 °FSunny.1 mph40%30.01 "Hg10 mi
6:50 pm66 °FSunny.2 mph43%30.04 "Hg10 mi
6:20 pm66 °FSunny.2 mph43%30.04 "Hg10 mi
5:50 pm66 °FSunny.3 mph46%30.04 "Hg10 mi
5:20 pm66 °FPassing clouds.5 mph49%30.04 "HgN/A
4:50 pm66 °FPassing clouds.3 mph46%30.04 "HgN/A
4:20 pm66 °FPassing clouds.5 mph46%30.04 "HgN/A
3:50 pm66 °FPassing clouds.6 mph43%30.04 "HgN/A
3:20 pm66 °FSunny.6 mph43%30.07 "Hg10 mi
2:50 pm66 °FPassing clouds.7 mph40%30.07 "HgN/A
1:50 pm64 °FPassing clouds.8 mph46%30.07 "HgN/A
1:20 pm64 °FPassing clouds.7 mph52%30.07 "HgN/A
12:50 pm63 °FPassing clouds.7 mph52%30.09 "HgN/A
12:20 pm64 °FPassing clouds.6 mph49%30.09 "HgN/A
11:50 am63 °FPassing clouds.5 mph52%30.09 "HgN/A
11:20 am63 °FScattered clouds.5 mph52%30.09 "HgN/A
10:50 am63 °FPassing clouds.6 mph56%30.09 "HgN/A
10:20 am61 °FPassing clouds.6 mph63%30.09 "HgN/A
9:50 am61 °FPassing clouds.5 mph59%30.09 "HgN/A
9:20 am59 °FPassing clouds.3 mph59%30.09 "HgN/A
8:20 am55 °FSunny.7 mph72%30.09 "Hg10 mi
7:50 am52 °FPassing clouds.3 mph82%30.09 "HgN/A
7:20 am48 °FSunny.7 mph87%30.09 "Hg10 mi
6:50 am46 °FSunny.8 mph87%30.09 "Hg10 mi
6:20 am45 °FSunny.3 mph87%30.09 "Hg10 mi
5:50 am43 °FSunny.2 mph93%30.09 "Hg10 mi
5:20 am45 °FClear.1 mph87%30.09 "Hg10 mi
4:50 am45 °FClear.1 mph87%30.09 "Hg10 mi
4:20 am45 °FClear.2 mph87%30.09 "Hg10 mi
3:50 am45 °FClear.2 mph87%30.09 "Hg10 mi
3:20 am46 °FClear.1 mph87%30.09 "Hg10 mi
2:50 am46 °FClear.2 mph87%30.09 "Hg10 mi
2:20 am48 °FClear.2 mph82%30.09 "Hg10 mi
1:50 am48 °FClear.2 mph82%30.12 "Hg10 mi
1:20 am48 °FPassing clouds.3 mph82%30.12 "HgN/A
Weather by CustomWeather, © 2019

See weather overview